Location: Angwan Shehu
(11.2514°N, 7.4613°E)
Time: 05:17:52
(UTC+00:00)

SR - Pass Details

Date: 22 April 2021
Orbit: 573 x 882 km, 66.7° (Epoch: 12 May)

Event Time Altitude Azimuth Distance (km) Brightness Sun altitude
Rises 04:44:17 0° 187° (S) 3,081 ? -8.2°
Reaches altitude 10° 04:46:37 10° 181° (S) 2,212 ? -7.7°
Maximum altitude 04:51:28 46° 108° (ESE) 1,023 ? -6.5°
Drops below altitude 10° 04:56:45 10° 36° (NE) 2,404 ? -5.3°
Sets 04:59:21 0° 30° (NNE) 3,376 ? -4.6°
